sat.trackr.live / text

‹ back to catalog

STARLINK-2015

NORAD 47638 · 2021-012U

PAYLOAD ACTIVE UNKNOWN

§ Identity

Operator
Country
US
Launch date
2021-02-16
Launch site
AFETR
Launch vehicle
Mass (kg)
RCS (m²)

Purposes: comms

External: N2YO · Heavens-Above · Gunter

§ Orbital elements

Epoch: 2026-09-13T03:36:18.581184Z

Period
93.27 min
Inclination
53.1543°
Eccentricity
0.0001229
Mean motion
15.43941064 rev/d
Perigee alt
433.7 km
Apogee alt
435.3 km
Semi-major
6,812.6 km
B*
9.1986e-4
RAAN
174.2044°
Arg perigee
116.4339°
Mean anomaly
243.6794°
Rev number
31,016

§ Raw data

STARLINK-20151 47638U 21012U   26256.15021506  .00042316  00000+0  91986-3 0  99962 47638  53.1543 174.2044 0001229 116.4339 243.6794 15.43941064310167

JSON: /api/v1/satellites/47638 · /tle

For live sub-satellite position, see the globe view (requires WebGL).

§ Visibility from observer

Set your observer location to see the next 7 days of passes ≥ 10°. The values pass through the URL so the page stays shareable.

No JS? Fill the form by hand. The geolocation button needs JavaScript.